Location: Dumpton Point
(51.3500°N, 1.4433°E)
Time: 07:27:48
(UTC+00:00)

Envisat - Pass Details

Date: 09 December 2021
Orbit: 764 x 766 km, 98.2° (Epoch: 17 January)

Event Time Altitude Azimuth Distance (km) Brightness Sun altitude
Rises 04:04:20 0° 22° (NNE) 3,246 6.6 -33.5°
Reaches altitude 10° 04:06:59 10° 34° (NE) 2,314 5.9 -33.0°
Maximum altitude 04:11:20 28° 93° (E) 1,420 4.9 -32.4°
Drops below altitude 10° 04:15:39 10° 151° (SSE) 2,298 5.7 -31.7°
Sets 04:18:15 0° 163° (SSE) 3,219 6.4 -31.3°
